DW3589 Weather Reports


time (UTC)temp
C
wind
direction
speed
KPH
gust
KPH
rain 1hr
cm
rain 24hr
cm
rain mn
cm
humidity
%
barometer
mb
20260507150520 21 0.0 0.0 0.00 0.00 0.00 57 1011.9
20260507145520 21 0.0 0.0 0.00 0.00 0.00 58 1011.9
20260507144520 21 0.0 0.0 0.00 0.00 0.00 58 1012.0
20260507143520 21 0.0 0.0 0.00 0.00 0.00 57 1012.0
20260507142519 20 0.0 0.0 0.00 0.00 0.00 58 1012.1
20260507141519 20 0.0 0.0 0.00 0.00 0.00 58 1012.3
20260507140600 21 0.0 0.0 0.00 0.00 0.00 56 1012.3
20260507135520 20 0.0 0.0 0.00 0.00 0.00 58 1012.3
20260507134539 21 0.0 0.0 0.00 0.00 0.00 57 1012.3
20260507133520 21 0.0 0.0 0.00 0.00 0.00 58 1012.6
20260507132520 20 0.0 0.0 0.00 0.00 0.00 61 1012.6
20260507131519 20 0.0 0.0 0.00 0.00 0.00 60 1012.6
20260507130540 20 0.0 0.0 0.00 0.00 0.00 60 1012.6
20260507125519 20 0.0 0.0 0.00 0.00 0.00 61 1012.7
20260507124519 20 0.0 0.0 0.00 0.00 0.00 60 1012.8
20260507123520 20 0.0 0.0 0.00 0.00 0.00 60 1013.0
20260507122520 20 0.0 0.0 0.00 0.00 0.00 62 1013.0
20260507121538 20 0.0 0.0 0.00 0.00 0.00 61 1013.1
20260507120520 20 0.0 0.0 0.00 0.00 0.00 61 1013.2
20260507115520 20 0.0 0.0 0.00 0.00 0.00 61 1013.3
20260507114519 19 0.0 0.0 0.00 0.00 0.00 64 1013.3
20260507113517 20 0.0 0.0 0.00 0.00 0.00 64 1013.4
20260507112541 20 0.0 0.0 0.00 0.00 0.00 65 1013.3
20260507111518 20 0.0 0.0 0.00 0.00 0.00 65 1013.3
20260507110520 20 0.0 0.0 0.00 0.00 0.00 63 1013.3
20260507105558 20 0.0 0.0 0.00 0.00 0.00 63 1013.3
20260507104518 20 0.0 0.0 0.00 0.00 0.00 66 1013.4
20260507103518 19 0.0 0.0 0.00 0.00 0.00 71 1013.5
20260507102538 18 0.0 0.0 0.00 0.00 0.00 72 1013.6
20260507101518 18 0.0 0.0 0.00 0.00 0.00 76 1013.5
20260507100518 17 0.0 0.0 0.00 0.00 0.00 74 1013.5
20260507095518 18 0.0 0.0 0.00 0.00 0.00 69 1013.5
20260507094538 18 0.0 0.0 0.00 0.00 0.00 66 1013.4
20260507093518 18 0.0 0.0 0.00 0.00 0.00 66 1013.4
20260507092538 18 0.0 0.0 0.00 0.00 0.00 67 1013.4
20260507091518 18 0.0 0.0 0.00 0.00 0.00 67 1013.3
20260507090518 18 0.0 0.0 0.00 0.00 0.00 67 1013.3
20260507085518 18 0.0 0.0 0.00 0.00 0.00 68 1013.3
20260507084518 18 0.0 0.0 0.00 0.00 0.00 70 1013.3
20260507083518 18 0.0 0.0 0.00 0.00 0.00 72 1013.3
20260507082518 18 0.0 0.0 0.00 0.00 0.00 73 1013.3
20260507081539 17 0.0 0.0 0.00 0.00 0.00 74 1013.4
20260507080518 17 0.0 0.0 0.00 0.00 0.00 76 1013.3
20260507075518 17 0.0 0.0 0.00 0.00 0.00 76 1013.2
20260507074518 17 0.0 0.0 0.00 0.00 0.00 76 1013.0
20260507073518 17 0.0 0.0 0.00 0.00 0.00 76 1012.9
20260507072518 17 0.0 0.0 0.00 0.00 0.00 77 1012.9
20260507071518 16 0.0 0.0 0.00 0.00 0.00 78 1012.8
20260507070518 16 0.0 0.0 0.00 0.00 0.00 80 1012.6
20260507065538 16 0.0 0.0 0.00 0.00 0.00 80 1012.5
20260507064518 16 0.0 0.0 0.00 0.00 0.00 81 1012.5
20260507063518 15 0.0 0.0 0.00 0.00 0.00 83 1012.6
20260507062518 15 0.0 0.0 0.00 0.00 0.00 83 1012.4
20260507061518 15 0.0 0.0 0.00 0.00 0.00 82 1012.4
20260507060559 15 0.0 0.0 0.00 0.00 0.00 84 1012.4
20260507055542 14 0.0 0.0 0.00 0.00 0.00
20260507055018 -17 0.0 0.0 0.00 0.00 0.00
20260507054018 -17 0.0 0.0 0.00 0.00 0.00
20260507053548 -17 0.0 0.0 0.00 0.00 0.00
20260507053018 -17 0.0 0.0 0.00 0.00 0.00
20260507052538 -17 0.0 0.0 0.00 0.00 0.00
20260507051518 -17 0.0 0.0 0.00 0.00 0.00
20260507051051 12 0.0 0.0 0.00 0.00 0.00 81 1011.8
20260507050600 12 0.0 0.0 0.00 0.00 0.00 81 1011.8
20260507045518 13 0.0 0.0 0.00 0.00 0.00 81 1011.7
20260507044518 12 0.0 0.0 0.00 0.00 0.00 83 1011.6
20260507043519 12 0.0 0.0 0.00 0.00 0.00 83 1011.5
20260507042518 12 0.0 0.0 0.00 0.00 0.00 83 1011.3
20260507041518 12 0.0 0.0 0.00 0.00 0.00 82 1011.3
20260507040518 12 0.0 0.0 0.00 0.00 0.00 83 1011.6
20260507035518 13 0.0 0.0 0.00 0.00 0.00 83 1011.6
20260507034518 13 0.0 0.0 0.00 0.00 0.00 83 1011.7
20260507033519 13 0.0 0.0 0.00 0.00 0.00 83 1011.7
20260507032518 13 0.0 0.0 0.00 0.00 0.00 84 1011.7
20260507031519 13 0.0 0.0 0.00 0.00 0.00 84 1011.6
20260507030519 13 0.0 0.0 0.00 0.00 0.00 84 1011.5
20260507025538 13 0.0 0.0 0.00 0.00 0.00 84 1011.4
20260507024518 13 0.0 0.0 0.00 0.00 0.00 85 1011.4
20260507023518 13 0.0 0.0 0.00 0.00 0.00 86 1011.5
20260507022518 13 0.0 0.0 0.00 0.00 0.00 86 1011.4
20260507021538 13 0.0 0.0 0.00 0.00 0.00 86 1011.4
20260507020518 13 0.0 0.0 0.00 0.00 0.00 85 1011.5
20260507015519 13 0.0 0.0 0.00 0.00 0.00 85 1011.6
20260507014518 13 0.0 0.0 0.00 0.00 0.00 85 1011.6
20260507013518 13 0.0 0.0 0.00 0.00 0.00 85 1011.8
20260507012518 13 0.0 0.0 0.00 0.00 0.00 84 1011.8
20260507011518 14 0.0 0.0 0.00 0.00 0.00 84 1011.9
20260507010520 14 0.0 0.0 0.00 0.00 0.00 85 1012.0
20260507005519 13 0.0 0.0 0.00 0.00 0.00 85 1012.1
20260507004518 13 0.0 0.0 0.00 0.00 0.00 85 1012.2
20260507003539 13 0.0 0.0 0.00 0.00 0.00 85 1012.3
20260507002518 13 0.0 0.0 0.00 0.00 0.00 85 1012.5
20260507001519 13 0.0 0.0 0.00 0.00 0.00 85 1012.6
20260507000518 13 0.0 0.0 0.00 0.00 0.00 85 1012.5
20260506235518 13 0.0 0.0 0.00 0.00 0.00 85 1012.7
20260506234518 13 0.0 0.0 0.00 0.00 0.00 85 1012.7
20260506233521 13 0.0 0.0 0.00 0.00 0.00 84 1012.7
20260506232558 14 0.0 0.0 0.00 0.00 0.00 84 1012.6
20260506231538 14 0.0 0.0 0.00 0.00 0.00 84 1012.6
20260506230518 14 0.0 0.0 0.00 0.00 0.00 83 1012.7
20260506225518 14 0.0 0.0 0.00 0.00 0.00 83 1012.8
20260506224519 15 0.0 0.0 0.00 0.00 0.00 83 1012.9
20260506223518 15 0.0 0.0 0.00 0.00 0.00 82 1012.9
20260506222519 15 0.0 0.0 0.00 0.00 0.00 82 1012.9
20260506221519 15 0.0 0.0 0.00 0.00 0.00 81 1012.9
20260506220539 15 0.0 0.0 0.00 0.00 0.00 81 1012.9
20260506215519 15 0.0 0.0 0.00 0.00 0.00 81 1012.8
20260506214519 15 0.0 0.0 0.00 0.00 0.00 81 1012.8
20260506213520 15 0.0 0.0 0.00 0.00 0.00 81 1012.7
20260506212539 15 0.0 0.0 0.00 0.00 0.00 80 1012.7
20260506211519 15 0.0 0.0 0.00 0.00 0.00 79 1012.6
20260506210519 15 0.0 0.0 0.00 0.00 0.00 79 1012.5
20260506205519 15 0.0 0.0 0.00 0.00 0.00 78 1012.6
20260506204520 16 0.0 0.0 0.00 0.00 0.00 77 1012.5
20260506203520 16 0.0 0.0 0.00 0.00 0.00 76 1012.5
20260506202519 16 0.0 0.0 0.00 0.00 0.00 76 1012.3
20260506201519 16 0.0 0.0 0.00 0.00 0.00 74 1012.3
20260506200519 16 0.0 0.0 0.00 0.00 0.00 73 1012.2
20260506195520 17 0.0 0.0 0.00 0.00 0.00 72 1012.1
20260506194519 17 0.0 0.0 0.00 0.00 0.00 70 1011.9
20260506193520 17 0.0 0.0 0.00 0.00 0.00 67 1011.6
20260506192520 17 0.0 0.0 0.00 0.00 0.00 65 1011.5
20260506191540 18 0.0 0.0 0.00 0.00 0.00 62 1011.4
20260506190519 18 0.0 0.0 0.00 0.00 0.00 59 1011.4
20260506185520 19 0.0 0.0 0.00 0.00 0.00 55 1011.3
20260506184519 20 0.0 0.0 0.00 0.00 0.00 53 1011.2
20260506183519 20 0.0 0.0 0.00 0.00 0.00 50 1011.1
20260506182519 20 0.0 0.0 0.00 0.00 0.00 48 1011.0
20260506181540 20 0.0 0.0 0.00 0.00 0.00 46 1010.9
20260506180519 21 0.0 0.0 0.00 0.00 0.00 45 1010.9
20260506175519 21 0.0 0.0 0.00 0.00 0.00 44 1010.9
20260506174518 21 0.0 0.0 0.00 0.00 0.00 45
20260506173518 21 0.0 0.0 0.00 0.00 0.00 44
20260506172559 21 0.0 0.0 0.00 0.00 0.00 44
20260506171519 22 0.0 0.0 0.00 0.00 0.00 44 1010.9
20260506170518 22 0.0 0.0 0.00 0.00 0.00 43 1011.0
20260506165519 22 0.0 0.0 0.00 0.00 0.00 42 1011.0
20260506164519 22 0.0 0.0 0.00 0.00 0.00 42 1011.0
20260506163540 22 0.0 0.0 0.00 0.00 0.00 41 1011.0
20260506162519 22 0.0 0.0 0.00 0.00 0.00 42 1011.1
20260506161519 23 0.0 0.0 0.00 0.00 0.00 42 1011.1
20260506160518 23 0.0 0.0 0.00 0.00 0.00 41 1011.1
20260506155540 23 0.0 0.0 0.00 0.00 0.00 40 1011.1
20260506154518 23 0.0 0.0 0.00 0.00 0.00 40 1011.2
20260506153518 23 0.0 0.0 0.00 0.00 0.00 41 1011.3
20260506152519 23 0.0 0.0 0.00 0.00 0.00 40 1011.4
20260506151518 23 0.0 0.0 0.00 0.00 0.00 40 1011.4